RH
15 13 14 12 19 7 18 34 14 17 14 35 65 50 43 40 36 42 46 50 65 72 72 72 66 68 70 45 62 81 80 82 77 63 64 61 63 84 75 87 87 85 80 89
14 12 9 8 8 8 28 27 25 16 22 67 49 26 33 39 42 48 48 62 63 66 81 72 60 45 44 42 69 86 76 85 86 84 55 50 74 74 75 79 78 90 84 84
20 11 9 8 7 8 13 23 56 73 70 69 56 51 52 43 42 49 56 65 58 75 83 67 75 71 52 56 70 72 54 63 58 76 86 69 82 83 78 66 78 80 90 85
18 11 9 9 8 7 12 37 59 55 68 45 59 53 65 57 65 58 61 64 79 87 92 80 83 69 56 52 67 68 66 85 79 81 70 70 84 88 89 92 89 86 90 88
15 11 10 10 8 8 36 48 52 57 67 54 55 67 70 66 60 75 67 86 81 81 89 90 91 95 81 77 65 76 80 89 85 91 86 83 80 83 76 77 81 76 76 79
20 13 11 11 9 8 46 54 43 36 73 62 59 77 65 60 75 71 90 96 80 89 93 90 88 92 92 70 71 77 85 84 88 87 91 92 65 96 88 86 84 85 89 92
29 14 12 13 12 11 16 49 56 68 76 69 75 79 88 70 79 78 83 92 75 77 91 84 72 84 82 78 85 67 79 91 86 83 70 77 87 75 80 89 89 87 82 86
17 14 14 14 14 13 14 27 54 75 84 84 74 81 84 75 76 71 85 67 79 89 91 64 62 47 50 49 41 54 68 73 77 73 83 90 64 80 86 89 86 86 89 77
20 16 15 16 15 14 15 23 27 62 78 84 82 82 89 80 74 58 58 63 81 81 54 58 68 70 84 56 61 37 46 57 70 78 81 88 87 71 58 79 86 77 81 79
22 19 24 17 17 16 16 26 23 39 83 83 88 85 86 93 89 66 66 70 61 59 53 61 61 63 80 68 74 92 59 72 83 80 86 83 84 51 55 69 82 81 73 76
22 39 37 19 17 17 16 27 24 32 80 76 78 88 91 85 81 66 67 59 54 47 62 57 75 56 64 57 75 93 77 83 73 67 74 78 77 50 73 83 75 68 69 68
30 32 51 22 22 20 20 33 30 30 59 67 57 68 72 81 82 85 76 76 87 68 67 70 67 68 56 80 73 54 76 81 88 84 75 66 68 80 87 80 78 72 75 68
51 53 39 21 21 24 24 34 32 36 70 81 63 62 64 70 81 91 83 75 84 85 81 71 68 71 59 66 78 58 58 88 83 79 62 73 72 69 54 61 79 72 61 64
53 72 36 26 26 25 27 33 35 34 51 60 62 55 62 63 74 88 92 83 84 75 65 70 67 67 68 64 70 65 74 67 82 68 64 77 62 62 69 73 62 62 64 62
40 70 43 26 31 28 30 28 44 34 51 63 59 60 60 61 66 78 84 86 82 68 73 74 78 76 71 81 79 72 77 89 89 86 84 93 85 78 74 84 80 80 81 77
37 31 17 15 24 23 23 40 34 40 33 63 62 64 61 59 58 62 69 75 75 77 78 92 92 90 72 72 59 84 76 82 91 90 88 92 86 82 81 90 90 92 93 92
23 21 19 18 17 16 29 50 50 35 35 56 61 55 59 61 62 64 60 65 82 80 90 90 85 82 65 75 77 83 80 83 84 88 84 85 72 92 89 86 88 92 91 89
22 24 24 23 23 26 39 55 30 31 32 50 76 62 51 69 65 71 67 72 72 73 90 87 84 72 60 74 80 81 81 83 78 83 80 89 94 89 80 78 95 94 91 90
23 25 26 26 24 36 52 50 33 30 40 79 78 89 81 67 66 68 68 69 72 69 79 86 77 64 84 78 91 89 91 92 93 84 76 71 78 76 79 72 75 83 84 81
22 24 23 45 32 31 32 30 46 60 65 72 84 82 83 74 71 73 77 80 88 88 84 82 78 82 72 81 91 89 87 90 88 93 84 84 78 80 78 80 77 85 90 83
21 26 39 30 28 28 46 70 73 67 76 75 87 84 89 81 91 92 95 94 88 82 72 84 90 79 72 81 82 80 79 88 90 86 83 83 79 85 86 77 63 65 77 80
23 26 27 25 45 64 56 73 61 70 72 75 83 88 85 83 88 93 89 94 76 68 69 66 69 63 80 78 82 79 78 83 88 81 82 75 72 69 78 66 68 74 76 62
22 25 59 68 71 62 55 63 68 76 74 87 90 88 90 79 77 92 89 68 70 63 74 62 62 74 70 78 76 77 72 78 79 80 72 72 69 73 62 70 77 82 88 70
73 66 59 75 73 74 76 74 75 67 80 87 92 93 88 85 81 92 67 72 70 67 72 64 62 69 80 73 75 81 83 80 81 80 80 79 80 74 68 70 80 93 83 78
71 70 70 73 72 77 79 79 81 76 87 90 90 87 75 75 67 72 64 67 69 73 64 61 63 76 76 79 81 84 88 91 92 90 92 94 93 92 84 79 86 88 88 84
70 73 76 83 72 75 80 85 85 87 91 90 78 66 63 74 77 56 79 68 67 63 71 65 72 80 81 83 85 91 92 94 92 89 91 93 90 90 88 85 85 85 88 91
65 80 78 74 77 74 75 78 76 92 88 80 78 54 58 76 67 58 81 72 65 63 69 66 72 85 86 89 92 94 94 95 93 92 94 97 99 79 89 85 83 89 84 88
Wind_Speed
35 37 39 40 37 38 14 4 5 40 17 7 4 7 5 8 12 14 9 5 7 5 8 8 6 9 9 19 12 6 6 2 5 7 5 9 19 14 3 3 4 4 3 4
35 38 40 40 36 36 5 3 3 22 19 6 6 5 6 9 12 13 8 9 8 6 5 4 7 12 12 19 14 9 5 2 4 5 2 16 17 21 8 1 1 13 3 3
36 39 40 40 33 33 7 3 3 5 5 4 4 4 8 6 11 7 5 9 5 5 7 9 5 9 14 11 13 15 3 8 13 11 9 10 13 22 20 10 8 10 6 8
35 38 39 39 31 30 7 5 4 2 5 9 11 5 6 7 9 10 12 4 11 5 5 3 7 9 13 6 17 8 4 10 16 14 11 18 20 16 19 19 14 8 9 8
34 38 38 37 30 23 16 4 4 4 3 4 7 12 8 9 5 10 7 5 7 11 5 4 3 5 7 10 11 6 5 5 4 4 6 4 20 19 11 12 17 12 9 7
34 37 37 37 28 14 8 6 6 4 8 6 5 5 5 7 6 2 2 3 1 7 6 3 2 2 3 3 8 9 4 3 2 3 3 3 7 20 13 7 13 13 12 15
32 35 34 32 30 26 18 8 5 4 5 7 4 5 1 5 5 3 3 1 3 1 1 3 3 5 4 1 6 9 4 2 2 2 2 5 3 16 10 6 10 17 16 15
33 32 31 26 30 30 28 12 6 4 5 1 2 6 4 3 2 2 3 2 2 2 3 1 2 3 3 9 16 18 9 1 3 2 4 2 2 15 16 5 3 18 19 17
29 31 26 31 30 26 32 24 17 10 5 8 4 2 4 4 5 0 2 0 2 3 3 5 6 7 4 10 16 14 12 10 6 3 3 3 5 22 12 3 3 20 19 17
26 28 27 26 27 28 31 23 15 13 6 2 0 5 3 0 0 2 3 7 5 2 4 6 6 5 2 9 12 10 15 6 12 8 3 3 9 18 9 5 10 20 18 17
24 24 24 26 28 31 35 24 24 17 5 3 2 3 3 1 2 4 4 3 2 2 4 3 2 5 4 2 3 6 11 8 7 6 5 5 13 12 8 7 13 16 17 16
20 22 24 26 22 21 29 25 24 21 13 4 4 6 5 2 2 3 3 2 1 2 3 2 2 3 2 3 6 7 5 5 5 4 6 12 12 15 3 14 18 16 16 16
16 19 24 28 30 23 19 16 9 8 7 5 3 3 6 8 6 4 3 2 3 1 1 2 2 5 1 4 5 10 9 0 3 11 2 12 20 5 18 18 16 16 15 17
13 13 14 16 17 26 30 24 11 7 6 4 2 7 5 8 8 6 4 2 3 3 1 3 3 3 2 2 1 8 7 7 11 10 8 17 5 18 18 18 20 18 21 20
16 12 17 13 11 10 10 27 26 12 2 3 3 2 10 8 6 8 5 2 1 1 2 3 2 2 1 0 1 6 10 10 7 8 18 13 18 19 21 16 17 18 16 16
21 24 26 22 14 8 7 4 12 17 6 4 2 1 5 13 6 8 9 5 4 2 3 3 2 1 1 3 7 1 12 12 11 7 15 16 16 20 16 13 17 19 16 18
14 15 16 18 20 25 14 4 15 10 5 2 3 2 5 13 6 4 5 6 3 3 2 2 2 1 1 1 7 15 16 14 14 13 13 15 11 16 21 21 21 20 20 19
8 7 9 11 11 11 12 16 26 8 10 8 3 3 3 12 4 4 9 4 2 5 2 1 2 1 3 3 14 14 14 16 13 12 18 16 19 17 17 19 16 12 11 14
4 4 4 4 6 5 5 7 8 21 13 4 3 5 4 12 3 3 3 3 2 1 3 2 2 2 5 11 14 15 16 15 18 17 17 17 13 15 16 18 17 13 12 16
4 2 2 2 4 5 4 2 6 10 9 7 3 0 3 4 4 2 4 3 2 1 3 2 1 2 1 4 9 12 14 19 22 17 18 18 17 16 15 14 19 18 18 18
2 3 2 1 5 3 6 4 5 4 4 4 2 1 5 3 3 3 3 2 2 1 3 2 1 1 7 8 13 19 21 22 22 21 20 20 19 15 14 19 24 22 17 17
8 10 6 4 9 4 6 3 3 4 3 4 4 4 1 1 1 2 2 2 1 3 4 1 3 4 5 15 16 21 23 24 21 22 20 21 22 23 21 20 19 18 15 18
5 5 5 4 4 10 6 6 3 4 3 3 5 5 3 2 2 0 2 4 3 4 3 3 2 6 14 15 17 22 26 25 23 21 21 21 22 21 23 18 18 18 14 22
3 4 6 3 4 2 2 2 2 2 1 4 4 2 2 2 2 1 3 2 2 5 4 4 7 15 15 15 22 20 21 24 23 21 22 21 21 22 22 18 18 18 19 19
4 4 4 3 1 1 1 1 3 1 1 2 1 0 1 2 2 3 2 6 4 1 3 6 10 15 14 15 21 22 21 21 20 20 19 21 19 18 19 18 17 19 21 14
4 4 4 1 2 1 1 1 2 1 1 1 1 1 3 4 2 3 1 2 3 4 4 9 11 13 13 19 23 22 22 21 20 20 21 22 20 19 18 19 17 21 16 16
4 2 1 2 3 2 1 2 1 1 1 1 0 4 1 0 1 2 3 3 3 7 9 8 14 12 18 22 22 22 21 21 20 21 22 21 16 22 16 18 21 21 15 16
Wind_Direction
16 12 8 6 0 359 15 42 63 351 42 51 47 48 17 18 14 13 40 43 44 27 21 24 47 28 8 2 347 7 17 31 74 100 70 25 21 4 9 325 31 22 49 61
18 15 14 10 6 4 24 69 69 19 31 58 56 61 54 48 24 18 17 18 22 16 30 68 35 24 13 12 0 12 1 36 145 148 141 27 25 21 32 90 350 29 30 40
21 20 18 17 12 6 57 81 38 30 46 55 38 26 15 29 31 47 35 22 29 23 31 27 33 6 5 9 1 23 41 53 78 99 93 48 33 27 24 35 59 61 52 6
24 24 23 21 20 13 75 26 62 353 6 31 50 53 7 12 14 3 21 51 35 7 41 26 20 9 358 354 6 19 67 96 104 112 98 71 47 33 32 42 35 38 354 4
30 29 28 27 25 49 62 95 118 50 40 3 33 15 18 16 351 5 6 43 21 31 60 31 17 340 18 25 337 34 347 129 150 193 235 3 41 27 31 42 32 28 25 21
35 34 32 31 37 58 75 57 78 95 13 26 43 18 355 357 326 83 41 328 315 42 16 314 342 39 84 100 21 7 27 136 223 84 42 189 19 7 1 51 38 21 19 350
40 38 38 37 44 65 88 74 84 80 44 54 39 0 322 344 358 332 340 307 16 61 189 126 98 84 113 183 52 32 28 36 354 77 254 56 57 12 353 338 59 28 8 353
47 44 45 50 53 55 70 68 77 100 86 16 75 10 355 288 270 342 297 14 9 169 155 170 24 22 12 356 13 22 38 36 68 23 40 99 341 356 342 323 180 21 359 349
52 49 54 57 58 61 68 62 75 83 110 14 285 330 17 12 350 54 354 65 206 202 2 40 46 39 310 0 344 0 21 21 47 19 44 32 24 341 355 212 191 4 351 340
57 55 57 60 64 65 69 59 73 88 99 61 233 33 353 195 297 312 321 343 358 310 47 50 46 62 316 27 11 338 2 359 23 7 10 92 6 358 327 16 328 332 336 334
64 63 66 69 66 70 73 65 76 96 96 87 117 148 17 334 345 9 349 262 44 40 56 53 52 55 35 36 13 347 8 347 8 344 345 12 10 357 6 329 326 330 332 328
74 71 73 67 65 69 78 78 81 85 78 107 110 73 41 40 333 304 17 75 10 44 79 59 138 85 86 347 31 16 18 20 319 338 304 317 337 325 302 326 329 329 326 325
84 81 77 70 64 64 73 94 97 83 101 95 56 356 11 20 7 357 326 112 140 148 296 117 93 78 17 29 45 13 9 250 288 320 11 330 318 346 336 333 324 321 325 325
88 93 75 66 66 65 65 69 64 81 99 99 103 27 33 2 9 10 24 100 118 98 237 71 66 87 331 76 129 28 353 316 329 294 296 319 305 324 323 325 323 323 325 324
75 76 59 56 61 56 61 58 50 47 64 113 131 108 27 25 38 36 38 69 83 9 74 50 64 85 171 56 248 28 357 333 330 314 314 304 309 316 317 314 318 320 319 321
79 71 64 57 47 36 57 71 36 18 58 114 108 72 24 18 38 36 29 30 46 53 62 80 84 112 343 45 352 68 338 316 291 289 309 301 297 304 304 308 309 303 313 313
89 81 75 67 64 72 67 75 314 1 56 77 93 38 25 4 16 25 0 19 39 42 94 62 74 86 22 62 353 333 325 320 315 288 313 311 323 318 317 310 305 311 308 306
94 74 64 57 60 71 49 31 24 46 87 54 45 334 6 11 7 355 6 352 22 31 96 116 43 115 26 2 341 326 324 329 328 325 321 299 303 309 311 322 306 305 304 301
94 69 67 74 39 49 12 7 20 48 63 93 66 347 325 356 30 355 331 340 59 319 54 49 302 77 30 326 332 329 337 333 330 325 326 335 331 326 337 339 336 328 322 321
85 61 48 41 12 5 10 45 29 29 26 37 84 239 327 347 346 7 335 8 43 54 44 293 42 129 337 284 315 330 334 332 329 331 341 337 342 346 343 338 335 331 343 334
72 62 80 118 36 62 42 54 40 355 39 16 54 60 332 37 339 335 26 340 343 30 35 320 51 17 344 322 344 342 337 333 331 343 334 344 341 337 334 341 341 335 351 360
93 114 97 45 29 40 71 33 360 43 18 344 351 342 326 339 290 310 9 335 316 6 325 320 354 348 309 346 344 342 339 336 344 345 348 346 344 340 344 338 339 341 344 345
84 62 50 24 326 44 56 352 331 344 5 18 344 324 354 317 10 24 328 10 359 297 8 346 339 315 342 343 341 338 340 340 345 346 350 346 343 348 344 337 335 333 332 338
64 56 36 58 18 76 164 203 240 282 271 336 329 279 347 345 345 330 359 20 305 359 341 322 338 340 335 339 338 336 334 340 341 346 346 343 343 345 342 341 337 334 336 339
75 56 63 67 151 201 196 261 287 223 300 336 241 221 341 5 30 21 331 5 356 261 314 314 326 330 332 333 335 333 331 335 336 343 338 334 339 341 335 340 338 338 339 341
79 70 99 67 96 358 340 215 269 141 68 164 178 49 53 44 348 27 77 336 271 283 289 318 320 324 326 328 328 326 330 330 333 338 334 333 342 339 331 335 339 344 337 334
70 57 15 113 98 166 199 186 258 327 208 21 88 50 348 210 7 347 191 219 255 307 308 312 317 316 319 318 320 328 330 329 333 333 329 327 330 340 336 336 341 343 336 333